Regional Weather Roundup
Issued by NWS

Home | Current Version | Previous Version | Graphics & Text | Print | Product List | Glossary On
Versions: 1 2 3 4 5 6 7 8 9 10 11 12 13 14 15 16 17 18 19 20 21 22 23 24 25 26 27 28
000
ASUS45 KTFX 250110
RWRMT
MONTANA REGIONAL WEATHER ROUNDUP
NATIONAL WEATHER SERVICE GREAT FALLS MT
700 PM MDT MON APR 24 2017

NOTE: "FAIR" INDICATES FEW OR NO CLOUDS BELOW 12000 FEET WITH NO
SIGNIFICANT WEATHER AND/OR OBSTRUCTIONS TO VISIBILITY.

MTZ001>007-043-250200-
WEST OF THE DIVIDE

CITY           SKY/WX    TMP DP  RH WIND       PRES   REMARKS
KALISPELL      CLOUDY    48  41  76 N7        29.62S
MISSOULA       LGT RAIN  46  40  79 W8        29.65R
BUTTE          HVY RAIN  41  34  76 W10       29.60R
MULLAN PASS    SNOW      32  32 100 NW6       29.64S VSB 1/4 WCI  26
ANACONDA         N/A     39  36  87 SW9       29.61S
DEER LODGE       N/A     48  30  49 NW6       29.62S
EUREKA           N/A     48  37  66 N3        29.65S
HAMILTON         N/A     45  39  81 E6        29.64R
LIBBY            N/A     54  36  50 NW8       29.61R
PLAINS           N/A     54  36  50 SW10      29.66R
$$

MTZ008-052>055-250200-
SOUTHWEST MONTANA

CITY           SKY/WX    TMP DP  RH WIND       PRES   REMARKS
BOZEMAN        CLOUDY    50  40  68 NW9       29.55F
DILLON         CLOUDY    41  33  73 NW7       29.59S
W YELLOWSTONE  CLOUDY    36  32  87 SW6       29.61F WCI  31
ENNIS          MOSUNNY   46  34  61 S7        29.61S
$$

MTZ009-010-012-014-046-048-049-054-250200-
EAST SLOPES AND CENTRAL MONTANA

CITY           SKY/WX    TMP DP  RH WIND       PRES   REMARKS
CUT BANK       LGT RAIN  44  37  76 NE3       29.63R
GREAT FALLS    CLOUDY    49  36  61 NE16      29.59R
MALMSTROM AFB  CLOUDY    50  39  65 NE17      29.59R
HELENA         CLOUDY    54  30  40 NE6       29.56R
AUGUSTA          N/A     46  32  57 W8        29.60S
BOWMANS CRNR   PTSUNNY   44  33  65 N18       29.58R
CHOTEAU          N/A     46  37  71 NE12      29.63R
FAIRFIELD      CLOUDY    48  36  62 N15       29.59R
POWER          PTSUNNY   48  37  65 NE15      29.59R
RAYNESFORD       N/A     45  37  74 SE14      29.59S
ULM            PTSUNNY   52  36  54 N13       29.58R
$$

MTZ011-013-016-021-045-047-050-051-250200-
NORTH CENTRAL MONTANA

CITY           SKY/WX    TMP DP  RH WIND       PRES   REMARKS
HAVRE          MOSUNNY   52  36  54 NE9       29.61R
LEWISTOWN      CLOUDY    44  36  73 E10       29.60S
N BAR RANCH    CLOUDY    41  37  87 NW7       29.64S
CHINOOK          N/A     52  37  58 NE17G23   29.62S
DENTON           N/A     48  40  72 MISG      29.56R
FORT BENTON      N/A     46  39  76 MISG      29.63R
GEYSER         PTSUNNY   48  37  64 S8        29.59R
GRASS RANGE    LGT RAIN  42  39  89 CALM      29.59S
JUDITH GAP     PTSUNNY   46  36  67 NW9       29.58S
STANFORD       PTSUNNY   45  38  76 SW8       29.59S
WINIFRED       PTSUNNY   48  40  73 E15       29.59R
$$

MTZ017>020-022>027-061-062-250200-
NORTHEAST MONTANA

CITY           SKY/WX    TMP DP  RH WIND       PRES   REMARKS
GLASGOW        CLOUDY    38  28  67 E20       29.72R WCI  28
JORDAN           N/A     45  36  70 NE16      29.65R
SIDNEY         CLOUDY    35  28  75 NE15      29.74R WCI  25
WOLF POINT     CLOUDY    36  27  69 NE18      29.75R WCI  26
MALTA          CLOUDY    46  36  66 E22       29.67S
PLENTYWOOD       N/A     28  27  93 E14       29.78S WCI  17
POPLAR           N/A     34  27  75 NE15      29.76S WCI  24
$$

MTZ028>42-056>058-250200-
SOUTHCENTRAL AND SOUTHEAST MONTANA

CITY           SKY/WX    TMP DP  RH WIND       PRES   REMARKS
BAKER          CLOUDY    43  35  73 NE14      29.64S
BILLINGS       CLOUDY    48  41  76 NE18G26   29.57R
LIVINGSTON     CLOUDY    49  34  56 SW10      29.54S
MILES CITY     PTCLDY    50  38  63 E15       29.62R
BIG TIMBER     MOSUNNY   46  41  81 S8        29.59S
LAUREL           N/A     49  40  71 NE12      29.60R
ROUNDUP          N/A     48  37  65 NE9       29.55S
$$

REGIONAL REPORTS...DAKOTAS

CITY           SKY/WX    TMP DP  RH WIND       PRES   REMARKS
WILLISTON      CLOUDY    33  27  78 NE14      29.77R WCI  23
MINOT          CLOUDY    34  28  79 NE14      29.75S WCI  25
DICKINSON      CLOUDY    33  28  81 NE16      29.67R WCI  23
BEACH          CLOUDY    37  34  87 NE13      29.70F WCI  29
TIOGA          CLOUDY    28  28 100 NE17      29.78R WCI  16
WATFORD CITY   CLOUDY    32  28  86 NE12      29.74S WCI  23
BISMARCK       CLOUDY    36  30  79 N13       29.70F WCI  27
GRAND FORKS    CLOUDY    36  34  92 N17       29.64R WCI  26
FARGO          CLOUDY    40  39  97 N20       29.56R
BUFFALO SD       N/A     45  39  79 NE15      29.56S
RAPID CITY     PTCLDY    54  38  54 NE13      29.58S
$$

REGIONAL REPORTS...WYOMING/IDAHO/WASHINGTON

CITY           SKY/WX    TMP DP  RH WIND       PRES   REMARKS
GILLETTE       RAIN      47  45  93 S6        29.55F
SHERIDAN       LGT RAIN  47  44  90 NE10      29.56R FOG
BUFFALO WY     RAIN      45  39  79 SW12      29.57R
CODY           CLOUDY    43  38  82 N6        29.57F
YELLOWSTONE LA   N/A     33  29  85 VRB5      29.63S
IDAHO FALLS    PTSUNNY   46  40  79 SW23      29.62S
SALMON         CLOUDY    45  37  76 CALM      29.62R
BOISE          CLOUDY    50  39  66 W15       29.72R
SPOKANE        PTSUNNY   50  35  56 CALM      29.67S
$$

REGIONAL REPORTS...ALBERTA

CITY           SKY/WX    TMP DP  RH WIND       PRES   REMARKS
EDMONTON       MIX PCPN  34  32  93 NE6       29.79S WCI  29
CALGARY        CLOUDY    39  34  81 NE14      29.70R WCI  31
LETHBRIDGE     CLOUDY    45  37  76 NE9       29.67R
MEDICINE HAT   PTSUNNY   46  39  76 E12       29.66S
WATERTON GATE    N/A     36  34  93 NW3         N/A
MILK RIVER       N/A     45  37  76 N14         N/A
ONEFOUR          N/A     50  36  57 NE5         N/A
$$

REGIONAL REPORTS...SASKATCHEWAN

CITY           SKY/WX    TMP DP  RH WIND       PRES   REMARKS
SWIFT CURRENT  CLOUDY    30  27  86 E17G23    29.76R WCI  18
REGINA         CLOUDY    30  23  74 E16       29.86S WCI  19
SASKATOON      CLOUDY    30  25  80 SE14G20   29.92R WCI  20
CYPRESS HILLS    N/A     36  34  93 E7          N/A  WCI  30
VAL MARIE        N/A     36  28  75 E16         N/A  WCI  26
ROCKGLEN         N/A     28  25  86 E5          N/A
ASSINIBOIA       N/A     37  36  93 E9          N/A  WCI  31
$$




USA.gov is the U.S. government's official web portal to all federal, state and local government web resources and services.